CST,Max TemperatureF,Mean TemperatureF,Min TemperatureF,Max Dew PointF,MeanDew PointF,Min DewpointF,Max Humidity, Mean Humidity, Min Humidity, Max Sea Level PressureIn, Mean Sea Level PressureIn, Min Sea Level PressureIn, Max VisibilityMiles, Mean VisibilityMiles, Min VisibilityMiles, Max Wind SpeedMPH, Mean Wind SpeedMPH, Max Gust SpeedMPH,PrecipitationIn, CloudCover, Events, WindDirDegrees
2013-1-1,18,2,-14,15,0,-18,92,87,78,30.27,30.04,29.88,10,8,1,12,6,18,0.00,6,Snow,212
2013-1-2,21,16,10,18,16,7,100,91,81,30.18,29.86,29.77,10,4,0,17,7,24,0.00,8,Fog-Rain-Snow,216
2013-1-3,21,10,0,14,5,-3,92,83,71,30.24,30.07,29.86,10,9,2,21,10,31,0.00,3,Snow,242
2013-1-4,27,14,0,17,7,-3,100,84,66,30.14,30.03,29.88,10,6,0,13,3,,0.00,2,Fog,285
2013-1-5,15,6,-2,12,2,-6,92,87,78,30.12,30.03,29.94,10,5,0,8,1,,0.00,6,Fog-Snow,306
2013-1-6,19,5,-8,14,2,-10,91,77,56,30.22,30.09,29.75,10,10,10,13,5,21,0.00,0,,188
2013-1-7,33,26,19,25,22,15,86,76,65,29.86,29.69,29.54,10,10,10,18,12,33,0.12,7,,241
2013-1-8,32,21,10,29,24,9,96,88,75,29.88,29.69,29.54,10,7,1,16,8,21,0.00,6,Snow,182
2013-1-9,28,24,19,25,20,15,86,78,69,30.23,29.89,29.56,10,8,1,17,11,30,0.00,7,Snow,263
2013-1-10,48,34,21,32,23,15,96,64,39,30.12,29.85,29.62,10,10,5,18,9,28,0.11,3,Rain,167
2013-1-11,34,23,12,34,27,9,100,94,85,29.65,29.49,29.41,10,2,0,20,6,25,0.23,8,Fog-Rain-Snow,32
2013-1-12,12,4,-6,9,2,-10,92,81,69,30.18,29.67,29.41,10,4,0,21,16,29,0.01,8,Fog-Snow,334
2013-1-13,1,-8,-17,-5,-12,-21,84,79,69,30.25,30.18,30.07,10,10,8,9,4,,0.00,3,,295
2013-1-14,7,2,-4,0,-4,-8,85,79,67,30.33,30.25,30.15,10,8,2,10,6,,0.00,6,Snow,222
2013-1-15,21,8,-5,19,8,-8,93,80,65,30.20,29.80,29.42,10,8,1,20,10,25,0.00,5,Snow,202
2013-1-16,24,6,-15,21,0,-22,100,77,56,30.34,29.87,29.42,10,9,4,28,15,36,0.00,5,Snow,314
2013-1-17,1,-6,-14,-8,-12,-21,83,73,60,30.44,30.37,30.23,10,9,4,9,2,,0.00,5,Snow,294
2013-1-18,10,4,-2,8,1,-7,92,83,77,30.23,29.89,29.75,10,4,1,12,8,,0.03,8,Snow,106
2013-1-19,14,2,-11,12,2,-16,100,84,72,30.32,29.81,29.57,10,3,0,25,10,36,0.08,7,Fog-Snow,337
2013-1-20,-2,-10,-20,-13,-18,-25,84,77,62,30.39,30.31,30.19,10,8,2,10,4,,0.00,4,Snow,294
2013-1-21,-11,-17,-23,-20,-25,-28,83,72,58,30.34,30.29,30.14,10,9,3,8,4,,0.00,3,Snow,285
2013-1-22,-2,-14,-26,-12,-22,-31,82,74,60,30.38,30.31,30.18,10,10,10,10,4,,0.00,2,,229
2013-1-23,0,-11,-23,-6,-17,-28,83,72,59,30.75,30.36,30.14,10,6,2,24,11,33,0.00,4,,326
2013-1-24,1,-14,-29,-2,-13,-35,85,76,59,30.75,30.32,29.99,10,4,1,12,5,17,0.03,6,Snow,140
2013-1-25,3,-4,-11,0,-4,-17,87,80,66,30.39,30.03,29.83,10,4,1,17,8,22,0.05,4,Snow,47
2013-1-26,15,-2,-20,5,-6,-25,83,72,59,30.38,30.24,30.13,10,10,9,12,4,21,0.00,5,,157
2013-1-27,26,16,5,18,10,1,84,75,63,30.12,29.97,29.81,10,10,10,9,5,,0.00,2,,111
2013-1-28,30,26,23,30,27,18,100,94,80,29.86,29.77,29.69,10,4,1,8,4,,0.04,8,Snow,201
2013-1-29,24,17,8,22,16,3,96,87,77,29.92,29.73,29.62,10,6,1,22,10,25,0.01,8,Snow,325
2013-1-30,8,4,-2,3,0,-6,85,80,72,29.93,29.80,29.73,10,4,1,20,14,22,0.00,8,Snow,326
2013-1-31,-2,-11,-22,-6,-14,-27,85,75,62,30.29,30.06,29.78,10,7,2,21,14,28,0.00,4,Snow,314